Theta_e
319 324 328 330 330 328 326 325 323 322 325 328 327 328 330 329 325 323 323 323 324 325 326 328 329 328 328 329 329 328 328 328 328 329 328 327 327 327 327 327 325 325
324 326 327 327 327 325 324 323 322 324 327 328 328 330 331 328 323 322 322 322 324 325 324 325 326 328 328 329 328 327 327 327 327 327 327 327 327 327 327 327 325 325
329 328 327 326 326 324 323 322 323 326 327 327 329 330 330 326 322 322 321 322 324 323 322 323 324 326 327 328 328 327 327 327 326 325 326 326 327 327 327 327 326 326
330 329 327 327 326 324 323 324 325 325 326 328 329 330 329 325 324 324 322 323 327 324 323 326 325 325 326 326 327 327 328 328 327 325 324 325 326 327 326 326 327 327
331 329 329 328 325 323 324 326 327 327 328 329 329 329 328 324 323 324 320 323 328 326 325 327 326 325 326 325 326 328 328 328 328 327 326 326 327 327 326 326 326 326
331 330 329 327 324 324 326 328 329 329 329 328 328 328 326 323 323 323 320 323 327 326 326 327 326 326 326 325 325 326 326 327 328 328 328 328 328 328 326 325 326 326
331 330 327 325 325 326 327 329 329 329 328 327 327 327 323 321 325 326 324 324 326 326 326 327 326 326 326 325 324 323 324 326 327 326 327 328 327 328 327 326 326 326
330 328 325 325 327 327 327 328 329 328 327 326 327 326 322 323 327 327 326 326 326 325 326 326 326 326 325 325 325 324 324 325 324 323 325 326 324 325 326 327 328 328
330 328 326 326 326 325 324 325 326 325 324 326 327 325 324 326 327 326 326 326 325 325 326 325 325 325 324 325 326 325 324 325 324 324 325 324 322 322 324 326 327 328
329 327 326 323 322 323 322 321 324 325 324 326 325 324 325 326 326 325 326 326 325 326 325 323 324 323 322 325 325 324 324 324 323 325 324 322 322 323 323 324 325 328
327 324 323 321 320 323 323 322 324 326 326 327 325 325 327 326 325 325 325 325 325 325 324 322 323 322 321 324 324 323 325 323 321 324 323 322 323 323 323 323 324 327
327 325 324 322 321 324 325 323 324 327 328 327 326 326 326 325 324 323 323 323 323 324 324 322 323 323 321 323 323 322 323 323 321 322 322 323 322 321 323 323 323 325
327 326 325 324 324 326 325 324 326 327 328 327 326 326 325 322 322 322 321 322 322 323 323 322 323 322 321 322 322 320 321 323 323 322 322 322 322 321 323 323 323 325
327 326 325 325 326 326 325 324 325 326 325 326 325 324 322 321 321 321 320 320 320 320 320 320 320 320 320 321 321 320 321 322 323 322 321 322 321 322 323 322 323 325
326 326 326 325 325 324 324 325 325 324 323 324 324 321 321 321 320 320 320 320 320 319 319 319 318 318 318 318 319 320 321 321 323 322 321 321 321 321 322 322 323 324
324 323 322 323 325 325 325 326 326 324 323 323 322 321 321 321 320 320 319 319 320 319 319 318 317 317 317 315 316 320 320 320 321 321 322 321 320 321 321 321 322 322
324 321 319 322 326 325 324 325 325 324 323 322 321 321 320 320 319 318 318 318 318 317 315 314 314 315 316 315 316 318 318 318 319 320 321 321 320 320 320 321 321 321
325 324 323 324 326 325 325 325 323 322 321 321 320 320 319 318 318 318 318 318 318 317 313 311 309 309 311 313 314 315 316 318 318 319 320 320 320 320 319 320 321 320
324 325 325 325 326 325 325 324 322 321 321 320 320 319 318 318 319 319 319 318 318 317 313 311 310 308 308 309 309 310 316 319 319 318 319 319 319 320 319 319 320 320
323 323 323 324 325 324 324 323 322 321 320 319 318 318 317 317 317 317 318 318 317 315 313 313 313 312 311 310 307 307 312 317 318 319 319 319 319 319 319 319 319 319
324 322 322 323 323 324 324 323 322 321 320 318 316 315 315 317 317 317 317 317 315 314 313 313 314 314 314 314 312 310 310 312 315 317 317 318 319 319 319 320 319 319
323 322 322 322 323 324 323 323 322 320 316 314 314 314 316 318 318 317 316 315 315 314 313 313 314 314 314 314 314 313 312 311 313 315 316 318 319 318 318 319 318 319
322 322 322 322 322 321 321 321 320 316 313 313 315 317 318 318 317 316 315 314 315 315 314 314 314 314 314 314 314 314 314 315 316 318 319 320 320 319 319 319 318 318
319 319 320 320 320 318 317 317 316 314 314 315 317 317 317 317 317 317 316 315 316 316 317 317 317 316 316 315 315 316 316 316 317 318 320 321 320 320 320 320 320 320
316 317 317 318 318 316 315 315 315 316 316 317 318 318 318 318 318 318 318 318 318 318 318 318 318 318 318 317 318 318 317 317 317 317 317 319 320 318 317 318 318 318
314 315 316 317 317 316 316 317 317 318 318 318 318 318 318 318 318 317 317 317 318 317 317 317 317 316 316 317 317 317 317 317 317 317 317 317 319 317 314 313 313 314
Wind_Speed
16 27 29 26 24 21 18 18 17 15 14 13 11 10 10 11 12 12 12 11 10 10 10 9 8 7 7 7 7 7 6 6 6 6 7 9 10 9 9 10 10 10
25 29 29 27 24 21 19 19 17 16 15 13 12 11 12 13 12 12 12 11 10 10 10 9 8 7 7 7 6 6 6 5 6 6 6 8 9 9 10 11 12 11
28 28 27 26 24 21 20 19 19 18 16 13 12 13 13 11 11 12 11 10 9 10 8 8 8 7 7 7 6 6 5 4 4 5 6 6 7 7 8 10 12 12
27 28 27 25 23 21 20 21 21 20 17 14 13 14 13 11 12 12 12 11 9 8 8 8 8 7 6 7 7 6 5 4 4 4 5 6 6 5 6 8 10 10
27 29 27 25 24 22 22 22 21 19 18 17 16 14 12 12 13 13 13 12 9 8 10 8 7 7 6 6 7 7 6 6 5 5 5 5 6 5 5 6 7 7
28 29 27 27 26 24 24 23 21 19 20 19 17 15 12 12 12 11 12 12 8 7 8 7 6 6 5 4 6 7 6 6 6 6 5 6 7 5 4 6 6 6
29 29 28 27 27 26 25 24 21 20 21 19 16 14 12 12 12 10 11 11 7 6 6 6 6 6 5 4 3 5 6 5 5 6 5 4 5 5 5 5 5 6
29 29 29 28 28 27 25 23 20 20 19 18 15 13 12 12 12 11 13 12 10 9 7 6 5 6 5 4 2 3 5 5 3 4 5 5 5 5 5 5 6 6
31 31 30 29 29 28 25 23 20 19 19 17 15 13 12 12 12 12 12 11 10 10 8 7 5 5 6 6 4 4 5 5 3 4 6 8 4 2 3 4 5 6
31 32 30 30 29 28 26 23 21 19 18 16 15 13 13 12 12 11 11 10 10 9 8 9 6 5 6 6 4 4 4 4 5 5 7 6 1 1 2 3 3 6
30 30 29 30 30 28 26 24 22 20 17 15 15 14 13 12 11 11 11 10 10 8 7 9 6 4 5 6 4 6 6 4 4 5 5 4 3 4 3 3 4 6
30 29 28 30 31 29 28 27 23 21 18 16 15 13 12 11 11 11 10 9 10 8 7 8 6 4 5 5 3 5 8 6 4 5 5 4 3 3 3 3 5 6
31 30 30 31 32 30 29 27 23 21 20 17 15 13 11 11 11 11 11 10 9 9 8 8 9 8 8 7 4 4 6 7 6 6 5 3 2 1 2 3 4 7
32 31 29 30 31 29 27 25 23 20 19 16 14 13 12 12 12 12 12 10 9 10 10 10 11 11 10 10 8 6 6 6 7 8 7 5 4 2 1 1 2 6
32 29 26 26 26 26 24 23 21 19 18 15 12 12 13 12 12 12 11 10 10 10 11 12 11 9 9 9 9 8 8 7 6 7 7 5 5 3 1 1 2 5
29 27 25 24 25 25 24 22 21 19 17 15 13 14 14 13 12 11 11 11 11 11 10 9 9 9 9 9 9 9 9 7 6 6 6 5 5 4 2 2 3 4
26 26 25 23 24 25 22 20 21 21 19 18 17 17 16 15 13 13 13 12 12 9 6 6 8 9 9 10 11 10 8 7 6 6 5 5 5 5 3 2 4 4
25 27 26 24 24 24 22 22 23 23 22 21 20 19 20 19 16 15 13 12 10 6 3 4 6 7 9 11 12 11 8 8 7 6 5 5 5 5 4 3 5 5
26 28 27 26 26 25 25 26 25 24 23 22 20 19 20 19 17 14 12 11 9 5 3 3 3 4 6 8 11 12 11 9 8 7 5 4 4 4 4 4 5 6
27 28 28 27 26 25 26 27 27 25 23 21 19 19 20 18 14 10 9 10 9 6 4 3 3 3 4 5 6 9 11 11 8 6 6 5 5 7 7 6 6 6
24 26 27 25 25 26 27 28 28 26 23 21 20 20 17 12 8 7 7 8 8 6 5 5 4 4 5 5 5 6 8 10 8 5 6 7 6 7 9 9 9 8
22 22 24 24 26 28 27 26 25 23 22 22 20 16 11 8 8 9 8 8 7 6 6 6 6 6 5 5 5 5 7 8 7 4 4 4 3 3 5 6 7 7
18 20 21 22 23 24 24 22 21 21 22 21 16 10 8 7 8 8 8 8 8 7 7 8 7 7 6 5 5 6 6 7 5 3 3 4 3 3 3 4 5 6
15 17 17 16 16 18 19 19 18 17 18 16 11 8 8 8 7 6 5 6 7 8 8 8 7 7 7 6 6 6 6 5 5 4 3 4 4 2 2 4 5 6
15 16 15 14 14 13 13 13 13 12 12 12 11 9 9 8 7 6 6 6 8 8 7 6 6 5 5 6 6 6 6 6 6 6 5 5 5 4 2 2 4 5
17 18 17 16 15 15 15 14 12 12 12 12 11 9 9 8 8 7 7 7 8 8 6 4 4 4 4 5 5 5 6 6 7 7 6 6 7 5 1 3 4 6
Wind_Direction
222 205 198 197 200 198 197 199 194 187 186 181 172 170 186 202 201 193 194 196 194 197 198 200 203 199 194 194 198 206 203 191 189 198 201 196 199 204 200 201 202 199
200 192 189 189 192 189 188 192 188 183 182 173 163 172 197 208 199 191 195 193 193 200 200 200 199 194 196 192 189 199 201 195 195 195 197 200 201 200 200 205 204 201
189 186 185 185 185 182 180 181 180 178 174 167 169 185 200 206 195 192 195 186 189 201 196 196 200 194 194 191 182 193 197 191 194 188 185 192 193 191 196 200 201 202
187 184 183 182 179 176 173 172 173 171 169 171 181 191 198 198 190 189 191 179 180 196 191 189 195 184 185 195 186 188 195 186 182 184 184 185 182 186 192 189 194 201
185 183 182 180 175 172 170 167 164 165 171 178 183 189 195 191 185 188 186 173 173 192 186 180 184 172 175 197 186 182 193 188 185 184 180 179 176 183 193 190 196 198
184 183 180 177 173 169 166 161 160 170 178 180 181 188 194 182 173 180 177 165 170 182 171 169 171 157 165 193 186 186 188 182 188 191 182 178 174 180 194 191 197 195
186 182 178 175 172 169 162 159 167 177 176 176 180 188 188 168 160 167 160 154 164 162 157 172 163 150 167 181 178 186 175 173 195 187 176 189 182 184 194 186 190 193
183 179 177 174 169 166 161 161 172 178 174 175 179 180 171 157 160 165 154 154 161 157 167 182 162 156 158 135 149 174 149 163 186 130 146 213 229 192 186 184 187 192
180 177 177 174 168 164 162 164 174 181 178 175 175 170 156 153 168 166 155 158 158 157 173 168 159 178 150 134 184 185 138 154 147 113 174 216 241 169 177 198 192 186
178 176 176 175 170 165 163 169 178 180 175 169 166 159 150 160 173 159 153 162 155 159 175 156 165 211 158 146 189 166 132 167 162 166 198 201 156 137 212 239 201 176
176 177 177 174 170 164 164 175 179 169 163 162 156 152 156 166 165 153 158 163 152 160 170 151 167 221 150 143 184 166 157 184 180 175 178 161 173 193 194 240 225 185
175 175 176 174 170 165 167 176 173 160 158 157 148 153 165 158 150 153 157 151 146 156 159 149 166 197 151 148 215 188 164 162 175 174 166 170 194 188 173 233 247 204
172 172 173 172 167 165 167 168 164 159 157 152 149 161 163 149 149 153 147 144 148 149 149 158 171 178 172 169 188 198 172 171 177 168 164 174 157 140 206 236 238 211
170 168 171 166 160 161 164 163 165 166 155 150 160 164 152 147 152 147 141 145 148 148 162 179 179 178 182 176 171 176 177 184 188 171 165 173 163 166 263 302 243 225
167 162 161 155 152 157 160 161 165 164 155 156 164 153 144 148 146 138 139 143 148 165 183 188 184 184 191 185 181 182 173 172 189 183 172 176 182 187 258 331 296 263
162 158 156 153 154 160 164 161 156 154 153 154 153 147 146 144 137 137 145 154 167 182 190 194 196 198 198 193 191 191 180 169 177 183 178 184 197 202 216 251 280 289
160 161 164 165 163 161 163 159 153 152 152 151 153 151 145 141 145 152 158 168 180 184 190 211 214 210 208 203 198 198 193 180 168 167 180 189 188 194 204 226 249 282
164 162 165 169 165 159 159 158 157 159 159 160 163 160 153 153 160 163 166 175 183 184 200 216 207 209 212 207 207 207 194 174 161 152 166 182 179 185 190 200 229 257
166 164 165 165 163 161 161 162 164 166 167 169 172 169 166 163 160 160 170 183 194 208 224 198 166 180 193 196 206 207 191 173 160 143 141 161 177 190 194 200 225 246
167 170 171 168 166 167 169 172 175 173 171 175 176 173 169 164 164 172 186 197 206 210 195 171 144 132 147 163 180 191 194 189 174 151 146 156 170 182 185 183 190 203
169 172 174 173 171 170 169 172 175 173 171 174 174 172 172 177 201 218 211 204 199 186 177 179 166 146 147 148 144 153 177 187 185 177 173 173 180 191 196 196 193 191
171 173 175 173 172 171 167 167 172 172 171 171 170 174 187 215 223 205 190 184 176 176 195 195 180 170 159 154 154 146 151 170 181 179 165 166 185 209 213 216 213 211
178 182 179 171 170 174 174 175 177 175 174 176 181 191 203 207 201 188 179 178 178 186 197 191 184 186 180 173 177 172 164 169 168 146 143 165 176 190 209 214 214 222
175 181 181 177 176 177 176 175 176 176 179 185 191 190 183 180 185 189 182 179 184 187 185 181 178 182 188 192 192 184 181 178 165 163 185 186 164 149 245 230 222 231
154 160 166 175 179 175 168 166 172 178 178 173 168 165 167 171 177 182 180 179 181 177 174 178 182 182 191 200 204 204 205 204 198 200 207 191 156 118 40 328 284 271
140 145 149 156 163 164 162 160 166 169 157 149 152 159 164 171 176 176 178 181 179 173 172 183 189 191 198 205 210 215 218 221 222 222 228 221 199 181 96 342 301 284